Location: Lima
(44.6384°N, 112.5920°W)
Time: 04:27:20
(UTC+00:00)

FO-29 - Visible Passes

Search period start: 16 April 2024 00:00
Search period end: 26 April 2024 00:00
Orbit: 800 x 1321 km, 98.6° (Epoch: 15 April)

Date Brightness Start Highest point End Pass type
(mag) Time Alt. Az. Time Alt. Az. Time Alt. Az.
16 Apr 11.7 07:56:03 10° NE 08:01:19 20° E 08:02:49 19° ESE visible
16 Apr 9.9 09:39:38 10° NNE 09:47:00 88° WNW 09:49:18 51° SSW visible
16 Apr 11.3 11:26:00 10° NNW 11:31:11 22° WNW 11:35:47 12° W visible
17 Apr 10.8 08:44:45 10° NNE 08:51:48 44° E 08:53:37 38° SE visible
17 Apr 10.5 10:29:52 10° N 10:36:45 45° WNW 10:40:06 30° WSW visible
18 Apr 11.7 07:51:03 10° NE 07:56:09 19° E 07:57:55 18° ESE visible
18 Apr 10.0 09:34:26 10° NNE 09:41:55 88° ESE 09:44:24 49° SSW visible
18 Apr 11.3 11:20:40 10° N 11:26:07 23° WNW 11:30:53 13° W visible
19 Apr 10.9 08:39:38 10° NNE 08:46:41 41° E 08:48:42 36° SE visible
19 Apr 10.4 10:24:38 10° N 10:31:41 48° WNW 10:35:11 30° WSW visible
20 Apr 11.8 07:46:03 10° NE 07:50:58 18° E 07:53:00 16° ESE visible
20 Apr 10.0 09:29:15 10° NNE 09:36:49 84° ESE 09:39:29 47° S visible
20 Apr 11.3 11:15:22 10° N 11:21:04 25° WNW 11:25:58 13° WSW visible
21 Apr 11.0 08:34:31 10° NNE 08:41:33 39° E 08:43:46 33° SE visible
21 Apr 10.4 10:19:25 10° N 10:26:37 51° WNW 10:30:16 30° SW visible
22 Apr 11.9 07:41:07 10° NE 07:45:47 17° E 07:48:04 15° ESE visible
22 Apr 10.1 09:24:05 10° NNE 09:31:44 79° ESE 09:34:33 45° S visible
22 Apr 11.2 11:10:05 10° N 11:16:02 26° WNW 11:21:02 14° WSW visible
23 Apr 11.0 08:29:25 10° NNE 08:36:25 37° E 08:38:50 31° SE visible
23 Apr 10.3 10:14:12 10° N 10:21:33 54° WNW 10:25:19 31° SW visible
23 Apr 11.8 12:01:51 10° NNW 12:05:01 13° NW 12:08:16 10° WNW visible
24 Apr 12.0 07:36:13 10° NE 07:40:35 16° E 07:43:07 14° ESE visible
24 Apr 10.1 09:18:57 10° NNE 09:26:39 75° ESE 09:29:36 43° S visible
24 Apr 11.2 11:04:50 10° N 11:10:59 28° WNW 11:16:05 14° WSW visible
25 Apr 11.1 08:24:20 10° NNE 08:31:18 35° E 08:33:53 29° SE visible
25 Apr 10.3 10:09:01 10° N 10:16:30 57° WNW 10:20:22 31° SW visible
25 Apr 11.8 11:56:23 10° NNW 12:00:00 14° NW 12:03:41 10° WNW visible
